DW7346 Weather Reports


time (UTC)temp
F
wind
direction
speed
knots
gust
knots
rain 1hr
in
rain 24hr
in
rain mn
in
humidity
%
barometer
mb
20260906223047 101 154 0.9 6.1 0.00 0.00 0.00 45 1007.6
20260906221549 100 94 0.9 6.1 0.00 0.00 0.00 44 1007.7
20260906220118 101 67 0.9 4.3 0.00 0.00 0.00 44 1007.6
20260906214542 100 186 0.9 6.1 0.00 0.00 0.00 46 1007.8
20260906213047 100 73 2.6 6.1 0.00 0.00 0.00 45 1007.9
20260906211540 100 70 0.0 5.2 0.00 0.00 0.00 48 1008.2
20260906210052 100 96 0.9 3.5 0.00 0.00 0.00 47 1008.5
20260906204531 100 127 0.9 7.8 0.00 0.00 0.00 46 1008.7
20260906203033 100 82 1.7 6.1 0.00 0.00 0.00 48 1008.8
20260906201523 99 143 0.9 5.2 0.00 0.00 0.00 49 1008.9
20260906200034 99 148 1.7 6.1 0.00 0.00 0.00 49 1009.1
20260906194517 99 141 1.7 5.2 0.00 0.00 0.00 49 1009.2
20260906193017 98 110 1.7 4.3 0.00 0.00 0.00 50 1009.4
20260906191516 98 25 1.7 7.0 0.00 0.00 0.00 51 1009.7
20260906190014 98 174 0.9 4.3 0.00 0.00 0.00 52 1009.6
20260906184514 98 92 1.7 6.1 0.00 0.00 0.00 52 1009.9
20260906183027 98 105 0.9 7.0 0.00 0.00 0.00 52 1010.0
20260906181511 98 160 1.7 6.1 0.00 0.00 0.00 53 1010.3
20260906180010 97 119 0.0 7.0 0.00 0.00 0.00 54 1010.4
20260906174507 96 37 0.0 7.0 0.00 0.00 0.00 55 1010.7
20260906173011 96 224 0.0 6.1 0.00 0.00 0.00 57 1010.9
20260906171503 95 120 0.9 3.5 0.00 0.00 0.00 58 1011.2
20260906170100 95 94 1.7 4.3 0.00 0.00 0.00 59 1011.2
20260906164600 94 100 0.9 6.1 0.00 0.00 0.00 61 1011.4
20260906163058 93 66 2.6 6.1 0.00 0.00 0.00 61 1011.5
20260906161601 93 142 0.9 4.3 0.00 0.00 0.00 63 1011.5
20260906160053 92 87 1.7 6.1 0.00 0.00 0.00 64 1011.5
20260906154544 91 113 0.0 1.7 0.00 0.00 0.00 67 1011.5
20260906153044 90 126 0.9 4.3 0.00 0.00 0.00 68 1011.3
20260906151536 90 70 0.9 3.5 0.00 0.00 0.00 71 1011.1
20260906150047 88 60 0.9 3.5 0.00 0.00 0.00 72 1011.0
20260906144536 87 108 0.0 3.5 0.00 0.00 0.00 74 1010.9
20260906143034 86 78 0.9 3.5 0.00 0.00 0.00 76 1010.9
20260906141534 84 67 0.0 2.6 0.00 0.00 0.00 79 1011.1
20260906140023 83 77 0.0 0.0 0.00 0.00 0.00 81 1011.1
20260906134520 82 79 0.0 0.0 0.00 0.00 0.00 83 1011.1
20260906133020 81 79 0.0 1.7 0.00 0.00 0.00 85 1011.1
20260906131526 79 172 0.0 1.7 0.00 0.00 0.00 87 1011.1
20260906130032 79 157 0.0 0.0 0.00 0.00 0.00 88 1010.9
20260906124516 78 188 0.0 0.0 0.00 0.00 0.00 87 1010.8
20260906123014 78 188 0.0 0.0 0.00 0.00 0.00 86 1010.7
20260906121514 79 188 0.0 0.0 0.00 0.00 0.00 86 1010.6
20260906120010 79 188 0.0 0.0 0.00 0.00 0.00 86 1010.5
20260906114513 79 188 0.0 0.9 0.00 0.00 0.00 86 1010.4
20260906113008 79 189 0.0 0.9 0.00 0.00 0.00 85 1010.2
20260906111505 79 189 0.0 1.7 0.00 0.00 0.00 85 1010.1
20260906110007 79 191 0.0 0.9 0.00 0.00 0.00 85 1010.1
20260906104508 79 191 0.0 0.9 0.00 0.00 0.00 84 1009.8
20260906103001 79 191 0.0 0.0 0.00 0.00 0.00 84 1009.8
20260906101600 80 191 0.0 0.0 0.00 0.00 0.00 83 1009.9
20260906100057 80 191 0.0 0.0 0.00 0.00 0.00 83 1009.7
20260906094637 80 191 0.0 0.0 0.00 0.00 0.00 82 1009.5
20260906093103 81 191 0.0 0.0 0.00 0.00 0.00 81 1009.4
20260906091552 81 191 0.0 2.6 0.00 0.00 0.00 81 1009.4
20260906090052 81 186 0.9 2.6 0.00 0.00 0.00 81 1009.2
20260906084551 81 172 0.0 3.5 0.00 0.00 0.00 81 1009.2
20260906083054 81 145 0.0 1.7 0.00 0.00 0.00 82 1009.2
20260906081554 81 119 0.0 1.7 0.00 0.00 0.00 82 1009.1
20260906080053 81 176 0.0 1.7 0.00 0.00 0.00 81 1009.0
20260906074548 82 176 0.0 0.9 0.00 0.00 0.00 80 1009.2
20260906073045 82 176 0.0 0.0 0.00 0.00 0.00 79 1009.4
20260906071542 82 176 0.0 0.0 0.00 0.00 0.00 78 1009.5
20260906070041 83 176 0.0 0.9 0.00 0.00 0.00 77 1009.5
20260906064541 83 176 0.0 0.9 0.00 0.00 0.00 77 1009.5
20260906063041 82 179 0.9 2.6 0.00 0.00 0.00 77 1009.4
20260906061542 83 124 0.0 3.5 0.00 0.00 0.00 77 1009.4
20260906060037 83 167 0.0 1.7 0.00 0.00 0.00 76 1009.6
20260906054534 84 122 0.0 1.7 0.00 0.00 0.00 74 1009.4
20260906053032 85 191 0.0 2.6 0.00 0.00 0.00 72 1009.5
20260906051530 85 122 0.0 1.7 0.00 0.00 0.00 72 1009.6
20260906050027 85 147 0.0 0.9 0.00 0.00 0.00 71 1009.7
20260906044533 85 109 0.0 1.7 0.00 0.00 0.00 70 1009.6
20260906043026 86 142 0.0 2.6 0.00 0.00 0.00 70 1009.4
20260906041526 86 138 0.0 1.7 0.00 0.00 0.00 69 1009.5
20260906040032 86 114 0.0 4.3 0.00 0.00 0.00 67 1009.3
20260906034524 87 112 0.0 0.9 0.00 0.00 0.00 67 1009.4
20260906033024 87 111 0.0 1.7 0.00 0.00 0.00 66 1009.3
20260906031540 88 113 0.0 1.7 0.00 0.00 0.00 65 1009.5
20260906030022 88 201 0.0 6.1 0.00 0.00 0.00 64 1009.5
20260906024522 88 121 0.9 6.1 0.00 0.00 0.00 63 1009.4
20260906023021 89 30 1.7 4.3 0.00 0.00 0.00 62 1009.1
20260906021522 89 96 1.7 8.7 0.00 0.00 0.00 62 1008.7
20260906020029 90 126 0.9 4.3 0.00 0.00 0.00 61 1008.7
20260906014520 92 169 1.7 5.2 0.00 0.00 0.00 58 1008.5
20260906013020 94 53 0.9 6.1 0.00 0.00 0.00 54 1008.1
20260906011519 94 102 0.0 2.6 0.00 0.00 0.00 50 1007.6
20260906010018 95 119 0.0 3.5 0.00 0.00 0.00 49 1007.5
20260906004518 96 92 0.9 5.2 0.00 0.00 0.00 47 1007.5
20260906003024 97 148 0.0 2.6 0.00 0.00 0.00 47 1007.5
20260906001518 98 83 0.0 3.5 0.00 0.00 0.00 46 1007.5
20260906000018 99 70 0.9 3.5 0.00 0.00 0.00 44 1007.4
20260905234516 99 98 0.0 3.5 0.00 0.00 0.00 44 1007.2
20260905233017 100 80 0.0 3.5 0.00 0.00 0.00 44 1007.2
20260905231515 100 58 0.9 3.5 0.00 0.00 0.00 44 1007.3
20260905230014 100 49 0.0 2.6 0.00 0.00 0.00 44 1007.2